Location: Colonia Mina de C?rbuni
(46.1667°N, 22.7167°E)
Time: 19:51:29
(UTC+00:00)

Vanguard 2 - Visible Passes

Search period start: 19 April 2024 00:00
Search period end: 29 April 2024 00:00
Orbit: 552 x 2917 km, 32.9° (Epoch: 19 April)

Date Brightness Start Highest point End Pass type
(mag) Time Alt. Az. Time Alt. Az. Time Alt. Az.
19 Apr 10.6 01:00:53 29° SSW 01:09:09 45° SSE 01:24:40 10° E visible
19 Apr 10.6 03:03:30 10° WSW 03:20:08 51° S 03:34:28 10° ESE visible
19 Apr 10.8 23:12:59 30° SSE 23:13:31 31° SE 23:27:30 10° E visible
20 Apr 10.6 01:14:05 27° SW 01:23:36 48° SSE 01:39:24 10° E visible
20 Apr 11.5 21:25:04 11° ESE 21:25:04 11° ESE 21:26:04 10° ESE visible
20 Apr 10.6 23:26:10 35° SSE 23:27:41 35° SSE 23:42:35 10° E visible
21 Apr 10.5 01:27:16 24° SW 01:38:05 50° S 01:54:03 10° ESE visible
21 Apr 11.3 21:38:13 16° ESE 21:38:13 16° ESE 21:42:53 10° E visible
21 Apr 10.4 23:39:19 38° S 23:41:56 40° SSE 23:57:29 10° E visible
22 Apr 10.5 01:40:25 20° WSW 01:52:35 51° S 02:08:37 10° ESE visible
22 Apr 11.1 21:51:21 21° ESE 21:51:21 21° ESE 21:58:43 10° E visible
22 Apr 10.3 23:52:26 39° S 23:56:14 44° SSE 00:12:16 10° E visible
23 Apr 10.5 01:53:32 16° WSW 02:07:04 51° S 02:23:06 10° ESE visible
23 Apr 10.8 22:04:27 26° SE 22:04:27 26° SE 22:14:04 10° E visible
24 Apr 10.2 00:05:32 38° SSW 00:10:35 47° SSE 00:26:57 10° E visible
24 Apr 10.5 02:06:38 12° WSW 02:21:32 50° S 02:37:29 10° ESE visible
24 Apr 10.6 22:17:32 32° SE 22:17:32 32° SE 22:29:08 10° E visible
25 Apr 10.3 00:18:38 35° SW 00:24:59 49° S 00:41:33 10° ESE visible
25 Apr 10.6 02:20:32 10° W 02:35:58 48° SSW 02:51:45 10° SE visible
25 Apr 10.3 22:30:37 37° SE 22:30:37 37° SE 22:44:01 10° E visible
26 Apr 10.3 00:31:42 31° SW 00:39:25 50° S 00:56:04 10° ESE visible
26 Apr 10.6 02:35:10 10° W 02:50:22 45° SSW 03:05:53 10° SE visible
26 Apr 11.2 20:42:36 13° ESE 20:42:36 13° ESE 20:44:26 10° E visible
26 Apr 10.1 22:43:42 41° SSE 22:43:42 41° SSE 22:58:46 10° E visible
27 Apr 10.3 00:44:47 26° WSW 00:53:51 50° S 01:10:30 10° ESE visible
27 Apr 11.0 20:55:42 17° ESE 20:55:42 17° ESE 20:59:53 10° E visible
27 Apr 10.0 22:56:47 44° S 22:57:52 44° SSE 23:13:25 10° E visible
28 Apr 10.3 00:57:52 21° WSW 01:08:17 49° S 01:24:50 10° ESE visible
28 Apr 10.7 21:08:48 22° ESE 21:08:48 22° ESE 21:14:58 10° E visible
28 Apr 9.9 23:09:53 44° S 23:12:12 47° S 23:27:58 10° ESE visible
